PA3DZX-13 Weather Reports


time (UTC)temp
C
wind
direction
speed
KPH
gust
KPH
rain 1hr
cm
rain 24hr
cm
rain mn
cm
humidity
%
barometer
mb
20260903123925 21 248 24.1 38.6 0.00 0.00 0.00 69 1015.2
20260903122424 20 241 24.1 38.6 0.00 0.00 0.00 71 1015.1
20260903120924 20 245 17.7 32.2 0.00 0.00 0.00 74 1015.1
20260903115423 20 236 20.9 32.2 0.00 0.00 0.00 79 1015.3
20260903113923 20 237 24.1 38.6 0.00 0.00 0.00 77 1015.2
20260903112422 20 239 12.9 24.1 0.00 0.00 0.00 83 1015.3
20260903110922 20 239 12.9 24.1 0.00 0.00 0.00 83 1015.3
20260903105422 18 223 12.9 24.1 0.00 0.00 0.00 90 1015.6
20260903103921 17 221 17.7 27.4 0.03 0.00 0.00 92 1015.6
20260903102420 17 221 17.7 27.4 0.03 0.00 0.00 92 1015.6
20260903100920 17 226 20.9 35.4 0.00 0.00 0.00 86 1015.4
20260903095419 18 223 24.1 38.6 0.00 0.00 0.00 84 1015.3
20260903093919 17 226 20.9 38.6 0.00 0.00 0.00 83 1015.2
20260903092418 18 225 24.1 41.8 0.00 0.00 0.00 81 1015.1
20260903090918 18 226 17.7 32.2 0.00 0.00 0.00 78 1015.2
20260903085417 18 220 17.7 27.4 0.00 0.00 0.00 79 1015.1
20260903083916 17 216 17.7 27.4 0.00 0.00 0.00 77 1015.0
20260903082416 17 214 17.7 24.1 0.00 0.00 0.00 77 1015.2
20260903080916 17 212 20.9 32.2 0.00 0.00 0.00 77 1015.1
20260903075415 17 216 17.7 27.4 0.00 0.00 0.00 78 1015.2
20260903073915 17 221 17.7 32.2 0.00 0.00 0.00 76 1015.3
20260903072415 17 213 20.9 32.2 0.00 0.00 0.00 75 1015.1
20260903070913 17 213 20.9 32.2 0.00 0.00 0.00 75 1015.1
20260903065412 17 213 12.9 27.4 0.00 0.00 0.00 75 1015.4
20260903063912 16 215 12.9 20.9 0.00 0.00 0.00 76 1015.6
20260903062411 16 217 12.9 27.4 0.00 0.00 0.00 75 1015.6
20260903060910 16 215 17.7 27.4 0.00 0.00 0.00 77 1015.6
20260903055409 16 211 17.7 24.1 0.00 0.00 0.00 77 1015.6
20260903053910 16 207 12.9 24.1 0.00 0.00 0.00 79 1015.6
20260903052409 15 213 12.9 24.1 0.00 0.00 0.00 83 1015.4
20260903050909 15 206 17.7 35.4 0.00 0.00 0.00 82 1015.5
20260903045409 16 205 12.9 24.1 0.00 0.00 0.00 78 1015.6
20260903043908 16 202 12.9 24.1 0.00 0.00 0.00 79 1015.5
20260903042408 16 204 12.9 24.1 0.00 0.00 0.00 80 1015.6
20260903040907 15 195 12.9 20.9 0.00 0.00 0.00 80 1015.9
20260903035407 15 189 12.9 20.9 0.00 0.00 0.00 80 1015.9
20260903033907 15 196 12.9 24.1 0.00 0.00 0.00 81 1016.4
20260903032407 15 198 12.9 27.4 0.00 0.00 0.00 82 1016.4
20260903030907 15 200 12.9 24.1 0.00 0.00 0.00 81 1016.4
20260903025407 15 201 12.9 24.1 0.00 0.00 0.00 82 1016.6
20260903023907 15 197 6.4 17.7 0.00 0.00 0.00 86 1016.8
20260903022407 15 197 6.4 17.7 0.00 0.00 0.00 86 1016.8
20260903020907 15 210 17.7 38.6 0.00 0.00 0.00 83 1017.0
20260903015407 15 211 9.7 24.1 0.00 0.00 0.00 80 1017.4
20260903013905 16 214 12.9 20.9 0.00 0.00 0.00 79 1017.3
20260903012405 16 214 12.9 20.9 0.00 0.00 0.00 79 1017.5
20260903010905 16 224 17.7 27.4 0.00 0.00 0.00 74 1017.8
20260903005405 16 212 9.7 20.9 0.00 0.00 0.00 74 1017.7
20260903003904 16 214 17.7 27.4 0.00 0.00 0.00 73 1017.8
20260903002405 16 206 17.7 24.1 0.00 0.00 0.00 72 1017.8
20260903000903 16 194 9.7 17.7 0.00 0.00 0.00 75 1017.9
20260902235403 16 191 9.7 17.7 0.00 0.00 0.00 76 1018.0
20260902233903 16 195 9.7 20.9 0.00 0.00 0.00 75 1018.1
20260902232403 15 179 9.7 12.9 0.00 0.00 0.00 82 1018.2
20260902230903 15 176 9.7 12.9 0.00 0.00 0.00 83 1018.3
20260902225404 15 178 9.7 12.9 0.00 0.00 0.00 83 1018.7
20260902223902 15 173 6.4 12.9 0.00 0.00 0.00 86 1018.8
20260902222403 15 174 6.4 12.9 0.00 0.00 0.00 87 1018.9
20260902220902 15 189 6.4 12.9 0.08 0.00 0.00 86 1019.0
20260902215402 15 194 6.4 12.9 0.03 0.00 0.00 85 1019.0
20260902213901 15 196 6.4 9.7 0.00 0.00 0.00 82 1019.1
20260902212401 15 191 6.4 9.7 0.00 0.00 0.00 82 1019.0
20260902210901 15 197 6.4 9.7 0.00 0.00 0.00 82 1019.2
20260902205359 15 201 6.4 9.7 0.00 0.00 0.00 82 1019.2
20260902203859 15 199 6.4 12.9 0.00 0.00 0.00 83 1019.3
20260902202358 15 196 6.4 9.7 0.00 0.00 0.00 83 1019.3
20260902200857 15 201 6.4 12.9 0.00 0.00 0.00 83 1019.4
20260902195356 16 196 6.4 12.9 0.00 0.00 0.00 83 1019.4
20260902193855 15 197 6.4 12.9 0.00 0.00 0.00 84 1019.5
20260902192355 16 187 6.4 9.7 0.00 0.00 0.00 83 1019.5
20260902190855 16 192 9.7 17.7 0.00 0.00 0.00 82 1019.6
20260902185355 16 205 12.9 20.9 0.05 0.00 0.00 78 1019.6
20260902183855 17 205 6.4 9.7 0.00 0.00 0.00 74 1019.6
20260902182355 16 201 3.2 6.4 0.00 0.00 0.00 75 1019.4
20260902180854 17 210 6.4 9.7 0.00 0.00 0.00 72 1019.2
20260902175354 17 211 3.2 6.4 0.00 0.00 0.00 72 1019.2
20260902173854 17 225 6.4 9.7 0.00 0.00 0.00 69 1019.2
20260902172353 17 222 6.4 17.7 0.00 0.00 0.00 69 1019.3
20260902170853 18 244 12.9 17.7 0.00 0.00 0.00 64 1019.2
20260902165352 20 238 9.7 17.7 0.00 0.00 0.00 58 1019.2
20260902163852 18 233 9.7 17.7 0.00 0.00 0.00 59 1019.4
20260902162352 18 235 6.4 12.9 0.00 0.00 0.00 61 1019.4
20260902160850 17 225 6.4 17.7 0.00 0.00 0.00 64 1019.6
20260902155350 17 216 9.7 17.7 0.00 0.00 0.00 61 1019.6
20260902153849 17 222 9.7 27.4 0.00 0.00 0.00 61 1019.6
20260902152348 17 244 17.7 27.4 0.00 0.00 0.00 62 1019.9
20260902150848 18 257 27.4 35.4 0.00 0.00 0.00 64 1019.9
20260902145348 18 265 20.9 35.4 0.00 0.00 0.00 63 1019.8
20260902143847 20 273 12.9 20.9 0.00 0.00 0.00 59 1019.6
20260902142346 20 233 17.7 24.1 0.00 0.00 0.00 62 1019.4
20260902140845 20 223 17.7 27.4 0.00 0.00 0.00 60 1019.6
20260902135344 20 223 17.7 27.4 0.00 0.00 0.00 60 1019.6
20260902133844 20 223 17.7 27.4 0.00 0.00 0.00 60 1019.6
20260902132343 20 223 17.7 27.4 0.00 0.00 0.00 60 1019.6
20260902130842 20 223 17.7 27.4 0.00 0.00 0.00 60 1019.6
20260902125341 20 223 17.7 27.4 0.00 0.00 0.00 60 1019.6